Lancaster, OH

6:40 PM EDT on May 26, 2017 (GMT -0400)
Fairfield County

Weather History for KLHQ - May, 2013

Change the Weather History Date:

Wednesday, May 15, 2013

  Actual Average Record
Temperature  
Mean Temperature 77 °F -  
Max Temperature 86 °F 72 °F 92 °F (1962)
Min Temperature 68 °F 48 °F 33 °F (1939)
Cooling Degree Days 12    
Growing Degree Days 27 (Base 50)    
Moisture  
Dew Point 56 °F    
Average Humidity 51    
Maximum Humidity 65    
Minimum Humidity 37    
Precipitation  
Precipitation 0.00 in - - ()
Sea Level Pressure  
Sea Level Pressure 29.82 in    
Wind  
Wind Speed 12 mph (WSW)    
Max Wind Speed 24 mph    
Max Gust Speed 41 mph    
Visibility 10 miles    
Events      
Averages and records for this station are not official NWS values.
T = Trace of Precipitation, MM = Missing Value Source: NWS Daily Summary

Daily Weather History Graph

Daily Weather History Graph

Search for Another Location

Airport or City:

Trip Planner

Search our weather history database for the weather conditions in past years. The results will help you decide how hot, cold, wet, or windy it might be!

Date:

Astronomy

May. 15, 2013 Rise Set
Actual Time 6:15 AM EDT 8:38 PM EDT
Civil Twilight 5:45 AM EDT 9:09 PM EDT
Nautical Twilight 5:07 AM EDT 9:47 PM EDT
Astronomical Twilight 4:25 AM EDT 10:29 PM EDT
Moon 10:50 AM EDT (5/15) 12:24 AM EDT (5/15)
Length of Visible Light 15h 24m
Length of Day
14h 22m
Waxing Crescent, 26% of the Moon is Illuminated
May 15
Waxing Crescent
May 18
First Quarter
May 25
Full
May 31
Last Quarter
Jun 8
New

Hourly Weather History & Observations

Time (EDT) Temp. Heat Index Dew Point Humidity Pressure Visibility Wind Dir Wind Speed Gust Speed Precip Events Conditions
12:53 AM 69.1 °F - 55.0 °F 61% 29.84 in 10.0 mi Variable 4.6 mph - N/A   Clear
1:53 AM 70.0 °F - 55.9 °F 61% 29.83 in 10.0 mi WSW 11.5 mph - N/A   Clear
2:53 AM 70.0 °F - 55.9 °F 61% 29.83 in 10.0 mi WSW 10.4 mph 19.6 mph N/A   Clear
3:53 AM 69.1 °F - 55.9 °F 63% 29.82 in 10.0 mi WSW 11.5 mph 19.6 mph N/A   Clear
4:53 AM 69.1 °F - 55.9 °F 63% 29.81 in 10.0 mi WSW 12.7 mph 20.7 mph N/A   Clear
5:53 AM 69.1 °F - 55.9 °F 63% 29.81 in 10.0 mi WSW 13.8 mph 21.9 mph N/A   Clear
6:53 AM 68.0 °F - 55.9 °F 65% 29.82 in 10.0 mi WSW 13.8 mph - N/A   Clear
7:53 AM 69.1 °F - 55.9 °F 63% 29.83 in 10.0 mi WSW 12.7 mph 21.9 mph N/A   Clear
8:53 AM 72.0 °F - 55.9 °F 57% 29.84 in 10.0 mi WSW 18.4 mph 26.5 mph N/A   Clear
9:53 AM 75.0 °F - 57.9 °F 55% 29.84 in 10.0 mi WSW 17.3 mph 26.5 mph N/A   Clear
10:53 AM 79.0 °F - 57.9 °F 48% 29.84 in 10.0 mi West 15.0 mph 26.5 mph N/A   Clear
11:53 AM 80.1 °F 80.4 °F 57.0 °F 45% 29.84 in 10.0 mi West 19.6 mph 29.9 mph N/A   Clear
12:53 PM 82.0 °F 81.7 °F 57.0 °F 42% 29.83 in 10.0 mi West 18.4 mph 32.2 mph N/A   Clear
1:53 PM 84.0 °F 83.5 °F 57.9 °F 41% 29.82 in 10.0 mi West 19.6 mph 28.8 mph N/A   Clear
2:53 PM 84.9 °F 84.2 °F 57.9 °F 40% 29.81 in 10.0 mi West 16.1 mph 32.2 mph N/A   Clear
3:53 PM 86.0 °F 84.9 °F 57.0 °F 37% 29.78 in 10.0 mi West 24.2 mph 41.4 mph N/A   Clear
4:53 PM 86.0 °F 85.0 °F 57.9 °F 38% 29.78 in 10.0 mi WSW 18.4 mph 29.9 mph N/A   Clear
5:53 PM 84.0 °F 83.3 °F 57.0 °F 40% 29.78 in 10.0 mi West 15.0 mph 24.2 mph N/A   Clear
6:53 PM 82.0 °F 82.0 °F 57.9 °F 44% 29.79 in 10.0 mi West 12.7 mph 20.7 mph N/A   Clear
7:53 PM 79.0 °F - 57.0 °F 47% 29.80 in 10.0 mi WSW 11.5 mph - N/A   Mostly Cloudy
8:53 PM 78.1 °F - 55.0 °F 45% 29.81 in 10.0 mi WSW 11.5 mph 19.6 mph N/A   Clear
9:53 PM 75.9 °F - 53.1 °F 45% 29.83 in 10.0 mi WSW 9.2 mph - N/A   Clear
10:53 PM 75.0 °F - 52.0 °F 44% 29.83 in 10.0 mi WSW 11.5 mph - N/A   Scattered Clouds
11:53 PM 73.9 °F - 51.1 °F 45% 29.81 in 10.0 mi WSW 10.4 mph - N/A   Clear